Location: West Sayville
(40.7279°N, 73.0976°W)
Time: 10:07:41
(UTC+00:00)

Cosmos 2297 Rocket - Pass Details

Date: 29 October 2020
Orbit: 838 x 845 km, 71.0° (Epoch: 23 November)

Event Time Altitude Azimuth Distance (km) Brightness Sun altitude
Rises 22:37:17 0° 338° (NNW) 3,412 5.5 -9.2°
Reaches altitude 10° 22:39:46 10° 341° (NNW) 2,473 4.8 -9.7°
Maximum altitude 22:45:26 70° 65° (ENE) 895 2.2 -10.7°
Drops below altitude 10° 22:51:03 10° 149° (SSE) 2,455 4.4 -11.8°
Sets 22:53:30 0° 152° (SSE) 3,385 5.1 -12.2°
